DW0841 Weather Reports


Display with metric or nautical units.
time (UTC)temp
F
wind
direction
speed
MPH
gust
MPH
rain 1hr
in
rain 24hr
in
rain mn
in
humidity
%
barometer
mb
20260903071236 47 293 4.0 9.0 0.00 0.40 0.40 71 998.0
20260903070216 46 203 4.0 8.0 0.00 0.40 0.40 76 997.4
20260903065236 46 315 3.0 7.0 0.02 0.40 0.40 77 997.3
20260903064216 45 293 3.0 5.0 0.03 0.40 0.40 85 996.9
20260903063236 45 315 2.0 4.0 0.06 0.40 0.40 87 996.9
20260903062216 45 45 1.0 3.0 0.08 0.40 0.40 87 997.0
20260903061216 45 293 2.0 3.0 0.08 0.40 0.40 87 997.2
20260903060216 45 338 7.0 11.0 0.08 0.40 0.40 92 997.3
20260903055216 45 293 2.0 3.0 0.09 0.38 0.38 87 997.3
20260903054237 45 248 2.0 2.0 0.11 0.37 0.37 86 997.4
20260903053216 46 180 3.0 5.0 0.09 0.34 0.34 86 996.5
20260903052216 46 338 4.0 9.0 0.07 0.32 0.32 85 995.7
20260903051216 45 315 3.0 7.0 0.07 0.32 0.32 86 995.8
20260903050216 45 248 5.0 11.0 0.07 0.32 0.32 83 996.1
20260903045216 46 248 2.0 4.0 0.04 0.29 0.29 78 995.7
20260903044216 48 180 2.0 4.0 0.01 0.26 0.26 72 995.3
20260903043216 50 203 1.0 3.0 0.00 0.25 0.25 72 994.8
20260903042216 52 0.0 2.0 0.00 0.25 0.25 65 995.1
20260903041216 54 270 4.0 9.0 0.00 0.25 0.25 56 994.3
20260903040216 54 23 4.0 10.0 0.00 0.25 0.25 55 994.3
20260903035218 55 270 4.0 7.0 0.00 0.25 0.25 56 994.4
20260903034218 55 293 3.0 7.0 0.00 0.25 0.25 55 994.5
20260903033219 54 293 5.0 8.0 0.00 0.25 0.25 54 994.5
20260903032218 54 270 2.0 3.0 0.00 0.25 0.25 56 994.8
20260903031218 54 293 6.0 13.0 0.00 0.25 0.25 55 994.5
20260903030218 54 248 4.0 7.0 0.00 0.25 0.25 54 994.3
20260903025218 54 338 3.0 10.0 0.00 0.25 0.25 53 994.4
20260903024238 53 0.0 2.0 0.00 0.25 0.25 54 994.1
20260903023218 54 270 6.0 12.0 0.00 0.25 0.25 52 994.3
20260903022218 54 248 3.0 5.0 0.00 0.25 0.25 57 994.4
20260903021258 53 270 2.0 6.0 0.00 0.25 0.25 63 994.6
20260903020218 51 158 3.0 6.0 0.00 0.25 0.25 68 994.8
20260903015218 52 293 2.0 7.0 0.00 0.25 0.25 61 995.1
20260903014238 53 225 7.0 15.0 0.00 0.25 0.25 58 995.0
20260903013218 53 180 5.0 8.0 0.00 0.25 0.25 62 994.8
20260903012218 52 225 9.0 13.0 0.00 0.25 0.25 57 994.6
20260903011218 52 248 2.0 4.0 0.00 0.25 0.25 68 994.2
20260903010218 50 225 4.0 10.0 0.00 0.25 0.25 70 994.4
20260903005218 49 203 8.0 12.0 0.00 0.25 0.25 70 994.5
20260903004218 50 180 7.0 16.0 0.00 0.25 0.25 66 994.8
20260903003218 52 225 7.0 17.0 0.00 0.25 0.25 60 994.4
20260903002218 52 180 10.0 17.0 0.00 0.25 0.25 61 994.2
20260903001218 52 180 4.0 8.0 0.00 0.25 0.25 63 994.0
20260903000218 51 270 5.0 10.0 0.00 0.25 0.25 62 993.8
20260902235218 51 203 8.0 16.0 0.00 0.25 0.25 63 993.8
20260902234218 51 293 8.0 16.0 0.00 0.25 0.25 62 993.9
20260902233218 51 248 8.0 13.0 0.00 0.25 0.25 61 993.9
20260902232218 52 270 6.0 15.0 0.00 0.25 0.25 62 993.2
20260902231218 52 135 5.0 17.0 0.00 0.25 0.25 65 992.8
20260902230218 51 293 5.0 8.0 0.00 0.25 0.25 67 992.6
20260902225218 51 270 3.0 10.0 0.00 0.25 0.25 70 993.4
20260902224218 51 270 2.0 8.0 0.01 0.25 0.25 70 992.9
20260902223218 52 248 2.0 4.0 0.01 0.25 0.25 63 992.9
20260902222238 51 225 3.0 7.0 0.01 0.25 0.25 65 992.5
20260902221216 50 203 4.0 9.0 0.01 0.25 0.25 69 992.4
20260902220218 50 315 3.0 4.0 0.02 0.25 0.25 69 992.2
20260902215218 49 0 7.0 12.0 0.02 0.25 0.25 75 992.2
20260902214218 49 293 4.0 7.0 0.01 0.24 0.24 80 992.3
20260902213218 48 270 2.0 8.0 0.01 0.24 0.24 84 992.4
20260902211218 49 248 1.0 4.0 0.04 0.24 0.24 83 992.2
20260902210218 49 0.0 0.0 0.07 0.24 0.24 84 991.7
20260902205238 49 248 1.0 2.0 0.10 0.24 0.24 85 991.7
20260902204218 49 338 2.0 4.0 0.13 0.24 0.24 86 991.3
20260902203218 50 248 2.0 6.0 0.17 0.24 0.24 87 991.5
20260902202217 50 338 1.0 3.0 0.20 0.23 0.23 87 992.0
20260902201218 50 45 2.0 4.0 0.20 0.20 0.20 85 992.0
20260902200218 51 293 3.0 5.0 0.17 0.17 0.17 84 991.7
20260902195218 51 270 5.0 9.0 0.13 0.13 0.13 84 990.8
20260902194218 51 293 4.0 6.0 0.11 0.11 0.11 83 990.4
20260902193217 52 135 2.0 5.0 0.07 0.07 0.07 83 990.5
20260902192218 54 45 2.0 5.0 0.02 0.02 0.02 77 990.7
20260902191217 57 203 1.0 3.0 0.01 0.01 0.01 70 990.6
20260902190218 58 270 4.0 7.0 0.00 0.00 0.00 60 989.8
20260902185238 58 270 4.0 8.0 0.00 0.00 0.00 61 989.4
20260902184217 57 0 2.0 4.0 0.00 0.00 0.00 61 989.7
20260902183218 57 248 3.0 8.0 0.00 0.00 0.00 61 989.7
20260902182258 57 293 2.0 4.0 0.00 0.00 0.00 61 989.4
20260902181218 57 293 3.0 8.0 0.00 0.00 0.00 62 989.3
20260902180238 56 315 3.0 6.0 0.00 0.00 0.00 63 989.5
20260902175218 56 23 2.0 4.0 0.00 0.00 0.00 64 989.7
20260902174218 56 68 1.0 4.0 0.00 0.00 0.00 66 989.7
20260902173218 55 293 2.0 4.0 0.00 0.00 0.00 67 990.2
20260902172218 55 315 1.0 2.0 0.00 0.00 0.00 68 990.7
20260902171218 56 0.0 1.0 0.00 0.00 0.00 67 990.5
20260902170218 57 293 1.0 3.0 0.00 0.00 0.00 66 991.4
20260902165217 56 293 1.0 3.0 0.00 0.00 0.00 67 991.9
20260902164218 56 45 1.0 3.0 0.00 0.00 0.00 67 992.1
20260902163218 56 0.0 1.0 0.00 0.00 0.00 67 992.0
20260902162218 56 23 1.0 3.0 0.00 0.00 0.00 67 992.1
20260902161218 56 338 2.0 8.0 0.00 0.00 0.00 66 992.6
20260902160237 56 338 1.0 2.0 0.00 0.00 0.00 66 992.8
20260902155217 56 225 2.0 5.0 0.00 0.00 0.00 67 993.2
20260902154238 55 338 1.0 3.0 0.00 0.00 0.00 67 993.2
20260902153238 55 0 1.0 5.0 0.00 0.00 0.00 68 993.4
20260902152217 55 338 1.0 2.0 0.00 0.00 0.00 69 993.3
20260902151239 55 0.0 0.0 0.00 0.00 0.00 68 994.0
20260902150217 56 0.0 2.0 0.00 0.00 0.00 67 993.6
20260902145217 56 338 2.0 3.0 0.00 0.00 0.00 66 994.1
20260902144238 56 45 2.0 4.0 0.00 0.00 0.00 66 994.1
20260902143217 56 270 3.0 6.0 0.00 0.00 0.00 68 994.3
20260902142217 56 23 3.0 7.0 0.00 0.00 0.00 67 994.2
20260902141217 56 315 2.0 4.0 0.00 0.00 0.00 68 994.5
20260902140218 56 0 1.0 3.0 0.00 0.00 0.00 67 994.7
20260902135217 56 315 4.0 7.0 0.00 0.00 0.00 67 994.8
20260902134217 56 23 3.0 5.0 0.00 0.00 0.00 67 995.1
20260902133217 56 0 4.0 10.0 0.00 0.00 0.00 66 995.2
20260902132237 56 0 2.0 4.0 0.00 0.00 0.00 67 995.6
20260902131217 56 23 3.0 11.0 0.00 0.00 0.00 67 995.8
20260902130257 56 270 2.0 4.0 0.00 0.00 0.00 67 996.0
20260902125217 56 293 1.0 2.0 0.00 0.00 0.00 68 996.2
20260902124237 56 338 3.0 4.0 0.00 0.00 0.00 67 996.3
20260902123237 56 23 1.0 5.0 0.00 0.00 0.00 68 996.4
20260902122217 56 293 1.0 3.0 0.00 0.00 0.00 68 996.7
20260902121217 56 338 2.0 4.0 0.00 0.00 0.00 68 996.8
20260902120237 56 0 3.0 10.0 0.00 0.00 0.00 68 996.7
20260902115217 56 338 1.0 3.0 0.00 0.00 0.00 68 996.9
20260902114217 55 0 3.0 8.0 0.00 0.00 0.00 68 997.2
20260902113217 56 23 2.0 7.0 0.00 0.00 0.00 69 997.4
20260902112217 55 0 3.0 11.0 0.00 0.00 0.00 69 997.6
20260902111217 55 0 1.0 3.0 0.00 0.00 0.00 70 997.8
20260902110237 55 315 2.0 4.0 0.00 0.00 0.00 70 997.7
20260902105217 55 23 2.0 3.0 0.00 0.00 0.00 70 997.8
20260902104217 55 270 3.0 8.0 0.00 0.00 0.00 70 997.8
20260902103217 55 338 3.0 8.0 0.00 0.00 0.00 71 998.0
20260902102217 55 0 3.0 7.0 0.00 0.00 0.00 70 998.1
20260902101217 55 315 1.0 3.0 0.00 0.00 0.00 70 998.3
20260902100217 55 338 3.0 7.0 0.00 0.00 0.00 71 998.3
20260902095217 55 0 1.0 3.0 0.00 0.00 0.00 71 998.5
20260902094217 55 0 1.0 2.0 0.00 0.00 0.00 71 998.5
20260902093217 55 0 1.0 2.0 0.00 0.00 0.00 70 998.6
20260902092217 55 338 2.0 5.0 0.00 0.00 0.00 70 998.8
20260902091217 55 45 1.0 3.0 0.00 0.00 0.00 70 998.9
20260902090217 56 315 1.0 3.0 0.00 0.00 0.00 70 998.6
20260902085237 56 45 3.0 8.0 0.00 0.00 0.00 69 998.6
20260902084257 56 23 3.0 5.0 0.00 0.00 0.00 69 998.7
20260902083237 56 338 1.0 3.0 0.00 0.00 0.00 69 998.5
20260902082216 56 0 1.0 2.0 0.00 0.00 0.00 69 998.6
20260902081237 56 23 1.0 3.0 0.00 0.00 0.00 69 998.8
20260902080217 56 0 2.0 3.0 0.00 0.00 0.00 70 998.9
20260902075216 56 0 1.0 3.0 0.00 0.00 0.00 69 998.9
20260902074216 56 0 3.0 5.0 0.00 0.00 0.00 69 999.0
20260902073237 56 338 1.0 2.0 0.00 0.00 0.00 68 998.9
20260902072217 57 315 4.0 8.0 0.00 0.00 0.00 66 998.5